Regional Weather Roundup
Issued by NWS Cleveland, OH

Home | Current Version | Previous Version | Graphics & Text | Print | Product List | Glossary On
Versions: 1 2 3 4 5 6 7 8 9 10 11 12 13 14 15 16 17 18 19 20 21 22 23 24 25 26 27 28 29 30 31 32 33 34 35 36 37 38 39 40 41 42 43 44 45 46 47 48 49 50
000
ASUS41 KCLE 281400
RWRCLE
OHIO REGIONAL WEATHER ROUNDUP
NATIONAL WEATHER SERVICE WILMINGTON, OH
900 AM EST SAT FEB 28 2015

NOTE: "FAIR" INDICATES FEW OR NO CLOUDS BELOW 12,000 FEET WITH NO
SIGNIFICANT WEATHER AND/OR OBSTRUCTIONS TO VISIBILITY.

OHZ001>008-015>018-024>027-034-035-043-044-281500-
   NORTHWEST OHIO

CITY           SKY/WX    TMP DP  RH WIND       PRES   REMARKS
DEFIANCE       MOSUNNY    1  -4  79 CALM      30.76R
FINDLAY        SUNNY      4  -5  66 S5        30.75R WCI  -5
TOLEDO EXPRESS MOSUNNY   -1  -5  82 CALM      30.76R
TOLEDO EXEC    MOSUNNY    2  -5  72 S3        30.78R
LIMA           MOSUNNY   10  -2  58 SE6       30.73R WCI   0
$$

OHZ009>014-019>023-028>033-038-089-281500-
   NORTHEAST OHIO

CITY           SKY/WX    TMP DP  RH WIND       PRES   REMARKS
CLE-HOPKINS    PTSUNNY   -1  -7  75 CALM      30.80R
CLE-LAKEFRONT  CLOUDY     7  -2  66 S8        30.78R WCI  -6
CUY CO. ARPT   PTSUNNY    5   0  78 SE5       30.77R WCI  -4
LORAIN-ELYRIA  MOSUNNY   -4  -7  87 CALM      30.77R FOG
ASHTABULA      MOSUNNY   -1  -5  82 S3        30.77R
AKRON-CANTON   MOSUNNY    7   2  80 SE6       30.73R WCI  -3
WOOSTER        NOT AVBL
MANSFIELD      MOSUNNY    4   0  83 S6        30.71R FOG     WCI  -7
YOUNGSTOWN     PTSUNNY    4  -2  76 E5        30.73R WCI  -5
$$

OHZ042-051>053-060>062-070>072-077>081-281500-
  SOUTHWEST OHIO

CITY           SKY/WX    TMP DP  RH WIND       PRES   REMARKS
CINC-COVINGTON CLOUDY    15   1  53 E9        30.71R WCI   3
CINC-LUNKEN    CLOUDY    14   2  58 NE5       30.77R WCI   6
HAMILTON       CLOUDY    14   1  56 E5        30.76R WCI   6
DAYTON         NOT AVBL
WRIGHT-PAT AFB CLOUDY    10   0  61 NE3       30.74R
DAYTON GENERAL CLOUDY    12  -2  53 E8        30.71R WCI   0
WILMINGTON     CLOUDY    10  -2  58 E6        30.70S WCI   0
$$

OHZ036-037-039>041-045>050-054>059-063>069-073>076-082>088-281500-
  CENTRAL AND SOUTHEAST OHIO

CITY           SKY/WX    TMP DP  RH WIND       PRES   REMARKS
COLUMBUS       PTSUNNY   10  -1  61 CALM      30.75R
OSU AIRPORT    MOSUNNY    8  -2  63 E3        30.74R
BOLTON FIELD   PTSUNNY   10   0  61 E3        30.74R
RICKENBACK AFB NOT AVBL
NEWARK         MOSUNNY    5  -2  72 NE3       30.75R
MARION         MOSUNNY    1  -5  75 CALM      30.74R
LANCASTER      CLOUDY     7   1  76 CALM      30.75R
ZANESVILLE     PTSUNNY    6   0  76 CALM      30.75R
NEW PHILLY     MOSUNNY    5   1  83 CALM      30.78R FOG
$$


USA.gov is the U.S. government's official web portal to all federal, state and local government web resources and services.